Location: Barlinek
(52.9932°N, 15.2108°E)
Time: 17:53:18
(UTC+01:00)

ISS - Visible Passes

Search period start: 16 January 2019 00:00
Search period end: 26 January 2019 00:00
Orbit: 404 x 407 km, 51.6° (Epoch: 17 January)

Date Brightness Start Highest point End Pass type
(mag) Time Alt. Az. Time Alt. Az. Time Alt. Az.
23 Jan -1.3 18:37:24 10° S 18:38:06 13° S 18:38:06 13° S visible
24 Jan -1.1 19:20:26 10° SW 19:21:11 15° SW 19:21:11 15° SW visible
25 Jan -2.4 18:28:52 10° SSW 18:31:29 25° SSE 18:31:29 25° SSE visible
